Location: Fernhill
(41.0167°S, 175.6333°E)
Time: 16:31:23
(UTC+00:00)

Cosmos 1833 Rocket - Pass Details

Date: 14 February 2026
Orbit: 832 x 837 km, 71.0° (Epoch: 8 March)

Event Time Altitude Azimuth Distance (km) Brightness Sun altitude
Exits shadow 12:21:46 15° 119° (ESE) 2,113 5.0 -36.0°
Drops below altitude 10° 12:23:06 10° 129° (SE) 2,471 5.5 -36.0°
Sets 12:26:01 0° 143° (SE) 3,415 6.5 -36.1°
